[[{"header":{"parameterUnit":"m.s-1","parameterCategory":1,"la1":30.2991,"la2":30.254,"lo1":-89.0895,"lo2":-89.0444,"dy":0.0017,"dx":0.0017,"nx":28,"ny":28,"refTime":"2023-10-11T21:00:00:Z","depth":0,"parameterNumber":2,"parameterNumberName":"U-component_of_WINDS"},"data":[0,0,0,0,0,0,0,0,0,0,0,0,0,0,0,0,0,0,0,0,0,0,0,0,0,0,0,0,0,0,0,0,0,0,0,0,0,0,0,0,0,0,0,0,0,0,0,0,0,0,0,0,0,0,0,0,0,0,-3.0693,-3.0694,0,-3.071,-3.071,-3.071,-3.0649,-3.0647,-3.0646,-3.0644,-3.0659,-3.0661,-3.0663,0,0,0,0,0,0,0,0,0,0,0,0,0,-3.0609,-3.0611,-3.0693,-3.0694,-3.0694,-3.0709,-3.071,-3.071,-3.0649,-3.0647,-3.0645,-3.0643,-3.0658,-3.0661,-3.0663,0,0,0,0,0,0,0,0,0,0,0,0,0,-3.0637,-3.0612,-3.0693,-3.0666,-3.0663,-3.0709,-3.071,-3.071,-3.065,-3.0647,-3.0645,-3.0642,-3.0658,-3.0661,-3.0664,-3.0737,0,0,-3.0673,-3.0675,0,0,0,0,0,0,0,0,-3.0636,-3.0641,-3.067,-3.0668,-3.0665,-3.0675,-3.0685,-3.0719,-3.0651,-3.0655,-3.0644,-3.0641,-3.0666,-3.0669,-3.0677,-3.0738,-3.0738,-3.0673,-3.0675,-3.0677,-3.0678,0,0,0,0,0,0,0,-3.0634,-3.064,-3.07,-3.067,-3.0667,-3.0652,-3.0653,-3.0692,-3.0676,-3.0654,-3.065,-3.0653,-3.0665,-3.0675,-3.0677,-3.0739,-3.0673,-3.0676,-3.0678,-3.0679,-3.0859,-3.0862,0,0,0,0,0,0,-3.0636,-3.0638,-3.0699,-3.07,-3.0644,-3.0656,-3.0657,-3.0674,-3.0675,-3.0673,-3.0655,-3.065,-3.0671,-3.0674,-3.0678,-3.0763,-3.0677,-3.068,-3.0681,-3.0856,-3.086,-3.0863,0,0,0,0,0,0,-3.0634,-3.0642,-3.0699,-3.0668,-3.0674,-3.066,-3.068,-3.0676,-3.0686,-3.0676,-3.0672,-3.0668,-3.0669,-3.0673,-3.0723,-3.0763,-3.0681,-3.0684,-3.0853,-3.0857,-3.0861,-3.0935,0,0,0,0,0,0,-3.0632,-3.0642,-3.067,-3.0669,-3.0676,-3.0744,-3.0683,-3.0678,-3.0692,-3.0685,-3.0687,-3.0685,-3.0667,-3.0718,-3.0726,-3.0766,-3.0686,-3.0849,-3.0855,-3.086,-3.0929,-3.0942,-3.0952,0,0,0,0,0,-3.0629,-3.069,-3.0672,-3.0679,-3.0711,-3.0746,-3.075,-3.0729,-3.0695,-3.0723,-3.0716,-3.0685,-3.0757,-3.0724,-3.0732,-3.0773,-3.0847,-3.0853,-3.086,-3.0924,-3.0939,-3.0952,0,0,0,0,0,0,-3.0695,-3.0689,-3.0669,-3.0731,-3.074,-3.0736,-3.077,-3.0745,-3.0764,-3.0757,-3.0729,-3.073,-3.0784,-3.0783,-3.0746,-3.0844,-3.0796,-3.0805,-3.0842,-3.0857,-3.0868,-3.0867,-3.0689,0,0,0,0,0,-3.0717,-3.0746,-3.074,-3.0795,-3.08,-3.0785,-3.08,-3.0782,-3.079,-3.0793,-3.079,-3.0799,-3.0823,-3.084,-3.0862,-3.0929,-3.0928,-3.0961,-3.0973,-3.0982,-3.099,-3.1025,-3.1039,-3.0885,-3.0884,-3.0884,0,0,-3.0762,-3.0762,-3.0783,-3.0808,-3.0813,-3.0844,-3.0788,-3.0824,-3.0846,-3.0798,-3.0845,-3.0843,-3.085,-3.0909,-3.0935,-3.091,-3.1032,-3.0991,-3.0998,-3.1001,-3.1033,-3.1048,-3.1061,-3.0889,-3.0888,-3.0887,0,0,-3.0859,-3.0863,-3.0909,-3.0915,-3.0924,-3.0913,-3.0924,-3.0925,-3.0922,-3.0968,-3.0933,-3.0959,-3.1002,-3.1009,-3.1018,-3.1118,-3.109,-3.1126,-3.1187,-3.1221,-3.1233,-3.1244,-3.1279,-3.1292,-3.1134,-3.1134,-3.1134,0,-3.0914,-3.096,-3.0936,-3.0974,-3.0986,-3.0945,-3.0991,-3.0998,-3.1013,-3.1022,-3.0995,-3.1048,-3.105,-3.1109,-3.1134,-3.1143,-3.1154,-3.1126,-3.1233,-3.1244,-3.1253,-3.1287,-3.13,-3.1139,-3.1138,-3.1138,-3.1137,0,-3.1027,-3.1059,-3.1095,-3.1111,-3.1127,-3.1169,-3.1152,-3.1171,-3.1152,-3.1144,-3.1192,-3.1193,-3.1215,-3.1227,-3.1209,-3.1284,-3.1269,-3.1238,-3.1189,-3.1273,-3.1304,-3.1317,-3.1145,-3.1143,-3.1142,-3.1141,0,0,-3.1165,-3.1168,-3.1182,-3.1188,-3.1194,-3.1219,-3.1259,-3.128,-3.1297,-3.1309,-3.1341,-3.1379,-3.135,-3.136,-3.1343,-3.1373,-3.1452,-3.1338,-3.1338,-3.1359,-3.1534,-3.1557,-3.1573,-3.1434,-3.1436,-3.1438,-3.1534,0,-3.1261,-3.133,-3.131,-3.1379,-3.1408,-3.137,-3.1404,-3.1411,-3.1405,-3.1429,-3.1422,-3.1449,-3.1409,-3.1415,-3.1444,-3.1437,-3.1487,-3.143,-3.1463,-3.1465,-3.1462,-3.1589,-3.1613,-3.1703,-3.1546,-3.1548,-3.1549,0,-3.1382,-3.1399,-3.1471,-3.1472,-3.1483,-3.1515,-3.1533,-3.1556,-3.1564,-3.1557,-3.1569,-3.1545,-3.1584,-3.1535,-3.1588,-3.1549,-3.1562,-3.1561,-3.1564,-3.1565,-3.1512,-3.1594,-3.1731,-3.1745,-3.1568,-3.1567,-3.1565,0,-3.1476,-3.1516,-3.1565,-3.1571,-3.1574,-3.1597,-3.1599,-3.1604,-3.1618,-3.1634,-3.1642,-3.1662,-3.1673,-3.1689,-3.1671,-3.1638,-3.1726,-3.1677,-3.1721,-3.1722,-3.1741,-3.174,-3.1883,-3.1751,-3.175,-3.175,-3.175,0,-3.1584,-3.163,-3.1607,-3.1636,-3.1686,-3.1662,-3.1712,-3.171,-3.1714,-3.1742,-3.171,-3.1737,-3.1712,-3.1736,-3.1723,-3.1768,-3.1773,-3.1769,-3.1764,-3.1771,-3.1772,-3.1779,-3.1772,-3.1754,-3.1753,-3.1752,-3.1752,0,-3.1697,-3.1684,-3.1733,-3.1732,-3.1733,-3.1769,-3.1768,-3.1795,-3.1786,-3.1822,-3.1829,-3.1816,-3.1843,-3.1827,-3.1855,-3.1846,-3.1905,-3.1892,-3.1903,-3.1899,-3.1944,-3.194,-3.2096,-3.2115,-3.1971,-3.1973,-3.1974,0,-3.1767,-3.1801,-3.1804,-3.182,-3.1825,-3.1852,-3.1866,-3.1845,-3.1861,-3.1872,-3.1898,-3.1922,-3.1941,-3.1986,-3.1978,-3.1999,-3.1987,-3.204,-3.1989,-3.1995,-3.1987,-3.1985,-3.1988,-3.205,-3.2051,-3.2053,-3.2054,0,-3.1893,-3.1884,-3.1906,-3.1927,-3.1945,-3.196,-3.1972,-3.1987,-3.1965,-3.1985,-3.2013,-3.2027,-3.2056,-3.208,-3.2098,-3.2099,-3.2073,-3.207,-3.2081,-3.2088,-3.2093,-3.209,-3.193,-3.2066,-3.2065,-3.2064,-3.2063,-3.2063,-3.1986,-3.2014,-3.202,-3.2046,-3.2053,-3.2065,-3.209,-3.2085,-3.2108,-3.213,-3.2116,-3.2148,-3.2154,-3.2175,-3.218,-3.2205,-3.2184,-3.22,-3.2204,-3.2209,-3.2215,-3.2089,-3.2208,-3.2208,-3.2208,-3.2207,-3.2207,0,-3.2109,-3.2111,-3.2135,-3.2153,-3.2174,-3.2148,-3.2159,-3.2178,-3.2207,-3.2215,-3.2234,-3.2266,-3.229,-3.2285,-3.2306,-3.2327,-3.2315,-3.2333,-3.2331,-3.2332,-3.2233,-3.2221,-3.2342,-3.2342,-3.2342,-3.2342,-3.2342,-3.2342,-3.2175,-3.2222,-3.2215,-3.2264,-3.2266,-3.2298,-3.2307,-3.2317,-3.2324,-3.2361,-3.2381,-3.2377,-3.238,-3.2401,-3.2422,-3.2419,-3.2428,-3.2451,-3.2444,-3.2352,-3.2339,-3.2326,-3.2314,-3.2453,-3.2453,-3.254,-3.2541,-3.2542]},{"header":{"parameterUnit":"m.s-1","parameterCategory":1,"la1":30.2991,"la2":30.254,"lo1":-89.0895,"lo2":-89.0444,"dy":0.0017,"dx":0.0017,"nx":28,"ny":28,"refTime":"2023-10-11T21:00:00:Z","depth":0,"parameterNumber":3,"parameterNumberName":"V-component_of_WINDS"},"data":[0,0,0,0,0,0,0,0,0,0,0,0,0,0,0,0,0,0,0,0,0,0,0,0,0,0,0,0,0,0,0,0,0,0,0,0,0,0,0,0,0,0,0,0,0,0,0,0,0,0,0,0,0,0,0,0,0,0,-4.1996,-4.1997,0,-4.2057,-4.2058,-4.2058,-4.2019,-4.2017,-4.2015,-4.2013,-4.2072,-4.2075,-4.2079,0,0,0,0,0,0,0,0,0,0,0,0,0,-4.1841,-4.1844,-4.1996,-4.1997,-4.1997,-4.2057,-4.2058,-4.2059,-4.2019,-4.2017,-4.2015,-4.2013,-4.2071,-4.2075,-4.2079,0,0,0,0,0,0,0,0,0,0,0,0,0,-4.1905,-4.1845,-4.1996,-4.1985,-4.1985,-4.2057,-4.2058,-4.2059,-4.202,-4.2017,-4.2014,-4.2011,-4.207,-4.2075,-4.2079,-4.2164,0,0,-4.2094,-4.2097,0,0,0,0,0,0,0,0,-4.1902,-4.1911,-4.1986,-4.1986,-4.1986,-4.2028,-4.2025,-4.2094,-4.202,-4.2006,-4.2013,-4.201,-4.2059,-4.2065,-4.2082,-4.2167,-4.217,-4.2095,-4.2098,-4.21,-4.2101,0,0,0,0,0,0,0,-4.1897,-4.1908,-4.202,-4.1987,-4.1987,-4.1976,-4.1982,-4.2038,-4.2047,-4.2007,-4.2004,-4.2012,-4.2059,-4.2078,-4.2083,-4.2171,-4.2095,-4.2099,-4.2102,-4.2104,-4.2327,-4.233,0,0,0,0,0,0,-4.1894,-4.1905,-4.2018,-4.2022,-4.1936,-4.1981,-4.1988,-4.2017,-4.2047,-4.2049,-4.2015,-4.201,-4.2071,-4.2078,-4.2085,-4.2186,-4.21,-4.2104,-4.2107,-4.2324,-4.2328,-4.2331,0,0,0,0,0,0,-4.1891,-4.1905,-4.2016,-4.1963,-4.1976,-4.1986,-4.2019,-4.2019,-4.2038,-4.2052,-4.2053,-4.2033,-4.2069,-4.2078,-4.2145,-4.2188,-4.2107,-4.2111,-4.2321,-4.2325,-4.2329,-4.2389,0,0,0,0,0,0,-4.1887,-4.1904,-4.1937,-4.1964,-4.1979,-4.2076,-4.2022,-4.2023,-4.2047,-4.2042,-4.2069,-4.2071,-4.2067,-4.2138,-4.215,-4.2193,-4.2115,-4.2317,-4.2323,-4.2328,-4.2383,-4.2395,-4.2405,0,0,0,0,0,-4.1882,-4.1951,-4.1939,-4.1953,-4.2021,-4.2078,-4.2087,-4.2082,-4.2051,-4.2084,-4.2093,-4.207,-4.2181,-4.2145,-4.2158,-4.2203,-4.2314,-4.2321,-4.2328,-4.2378,-4.2393,-4.2405,0,0,0,0,0,0,-4.1928,-4.1954,-4.1942,-4.2022,-4.2049,-4.2072,-4.2113,-4.2098,-4.2132,-4.2126,-4.2117,-4.2124,-4.2193,-4.2205,-4.2164,-4.2287,-4.2242,-4.2252,-4.2277,-4.229,-4.2301,-4.2296,-4.2119,0,0,0,0,0,-4.1948,-4.1994,-4.2014,-4.2083,-4.2097,-4.2103,-4.2127,-4.2122,-4.2148,-4.2159,-4.2172,-4.2198,-4.2238,-4.2265,-4.2303,-4.2385,-4.2389,-4.2422,-4.2433,-4.2442,-4.245,-4.2493,-4.2507,-4.2353,-4.2353,-4.2353,0,0,-4.1989,-4.2009,-4.2038,-4.2093,-4.2112,-4.2158,-4.2112,-4.2163,-4.2197,-4.2166,-4.223,-4.2241,-4.2268,-4.2343,-4.2376,-4.2355,-4.2494,-4.245,-4.2457,-4.2461,-4.2501,-4.2516,-4.2529,-4.2358,-4.2357,-4.2356,0,0,-4.2088,-4.2108,-4.2167,-4.2188,-4.2219,-4.2223,-4.2237,-4.2263,-4.2269,-4.2334,-4.2311,-4.235,-4.242,-4.2441,-4.246,-4.2566,-4.2546,-4.2579,-4.2635,-4.2677,-4.2689,-4.27,-4.2737,-4.275,-4.2587,-4.2587,-4.2587,0,-4.2134,-4.2205,-4.2199,-4.2252,-4.2276,-4.2251,-4.2311,-4.2331,-4.2372,-4.2388,-4.2364,-4.2451,-4.2468,-4.2546,-4.2572,-4.2589,-4.2604,-4.2575,-4.2688,-4.2699,-4.2709,-4.2744,-4.2758,-4.2591,-4.259,-4.259,-4.2589,0,-4.226,-4.2309,-4.2353,-4.2395,-4.2423,-4.2479,-4.2481,-4.2511,-4.2502,-4.2508,-4.2573,-4.2592,-4.2634,-4.2652,-4.2644,-4.2729,-4.2715,-4.2689,-4.2645,-4.2727,-4.276,-4.2773,-4.2596,-4.2595,-4.2593,-4.2593,0,0,-4.239,-4.2428,-4.2444,-4.2462,-4.2495,-4.2531,-4.2585,-4.2627,-4.2652,-4.2681,-4.2725,-4.2785,-4.2761,-4.2784,-4.2777,-4.2815,-4.2896,-4.2784,-4.2785,-4.2804,-4.299,-4.3008,-4.3024,-4.2883,-4.2886,-4.2888,-4.2987,0,-4.2489,-4.2585,-4.2582,-4.267,-4.2715,-4.2692,-4.2738,-4.2762,-4.2769,-4.2806,-4.2813,-4.2855,-4.2822,-4.2835,-4.2871,-4.2879,-4.2933,-4.2871,-4.2923,-4.2925,-4.2916,-4.3041,-4.3061,-4.3154,-4.3,-4.3002,-4.3004,0,-4.2619,-4.2653,-4.2747,-4.2772,-4.279,-4.2832,-4.287,-4.2906,-4.2932,-4.2934,-4.2959,-4.2947,-4.3,-4.2954,-4.3027,-4.2985,-4.3005,-4.3012,-4.3016,-4.302,-4.2969,-4.3048,-4.3184,-4.3198,-4.3024,-4.3023,-4.3021,0,-4.2703,-4.2773,-4.2837,-4.2854,-4.2885,-4.2915,-4.2929,-4.2953,-4.2977,-4.301,-4.3025,-4.3063,-4.3083,-4.3112,-4.3109,-4.3077,-4.3182,-4.3137,-4.3184,-4.3184,-4.3207,-4.3206,-4.3348,-4.3222,-4.3222,-4.3221,-4.3221,0,-4.2814,-4.2872,-4.2876,-4.2915,-4.2979,-4.2974,-4.3037,-4.3047,-4.3068,-4.3109,-4.3091,-4.3128,-4.3123,-4.3161,-4.3159,-4.3218,-4.3228,-4.323,-4.3229,-4.3231,-4.3231,-4.3244,-4.3238,-4.3225,-4.3224,-4.3224,-4.3223,0,-4.2919,-4.2924,-4.2993,-4.3017,-4.3024,-4.307,-4.3089,-4.3126,-4.3131,-4.3183,-4.3194,-4.3202,-4.3245,-4.3246,-4.3295,-4.3293,-4.3366,-4.3358,-4.3358,-4.3356,-4.3403,-4.3398,-4.3558,-4.3578,-4.344,-4.3441,-4.3442,0,-4.299,-4.3034,-4.3063,-4.3089,-4.3105,-4.3148,-4.3173,-4.317,-4.3197,-4.323,-4.3262,-4.3304,-4.3337,-4.3407,-4.3416,-4.3453,-4.3445,-4.3499,-4.3451,-4.3452,-4.3445,-4.3443,-4.3446,-4.3508,-4.351,-4.3511,-4.3512,0,-4.3114,-4.3114,-4.3153,-4.3192,-4.3223,-4.3254,-4.3281,-4.3304,-4.3303,-4.3334,-4.3379,-4.3405,-4.3455,-4.3497,-4.3533,-4.3545,-4.3528,-4.3527,-4.354,-4.3543,-4.3541,-4.3542,-4.3383,-4.3523,-4.3522,-4.3521,-4.3521,-4.352,-4.3203,-4.3241,-4.3268,-4.3311,-4.3331,-4.3358,-4.3394,-4.3404,-4.3441,-4.3483,-4.3478,-4.3528,-4.3551,-4.3598,-4.3614,-4.3652,-4.3633,-4.3652,-4.3656,-4.3661,-4.3666,-4.3535,-4.3658,-4.3658,-4.3658,-4.3657,-4.3657,0,-4.3326,-4.3342,-4.3382,-4.3422,-4.3456,-4.3438,-4.3468,-4.3497,-4.3541,-4.3565,-4.3599,-4.3649,-4.3689,-4.3701,-4.374,-4.3767,-4.376,-4.3777,-4.3775,-4.3778,-4.3681,-4.3666,-4.3782,-4.3782,-4.3782,-4.3782,-4.3782,-4.3782,-4.3394,-4.3457,-4.346,-4.3533,-4.3548,-4.3597,-4.3616,-4.364,-4.3659,-4.3717,-4.375,-4.3759,-4.3778,-4.3817,-4.3852,-4.3854,-4.3869,-4.3889,-4.3888,-4.3797,-4.3785,-4.3773,-4.3758,-4.3893,-4.3893,-4.3982,-4.3983,-4.3983]}]]